| time (UTC) | temp F | wind direction | speed MPH | gust MPH | rain 1hr in | rain 24hr in | rain mn in | humidity % | barometer mb |
| 20260906185822 | 68 | 98 | 2.0 | 7.0 | 0.00 | 0.10 | 0.10 | 70 | 1013.4 |
| 20260906185321 | 68 | 133 | 2.0 | 3.0 | 0.00 | 0.10 | 0.10 | 70 | 1013.3 |
| 20260906184821 | 68 | 59 | 1.0 | 6.0 | 0.00 | 0.10 | 0.10 | 69 | 1013.3 |
| 20260906183821 | 69 | 153 | 3.0 | 5.0 | 0.00 | 0.10 | 0.10 | 69 | 1013.5 |
| 20260906183322 | 69 | 169 | 2.0 | 5.0 | 0.00 | 0.10 | 0.10 | 69 | 1013.5 |
| 20260906182822 | 69 | 151 | 3.0 | 7.0 | 0.00 | 0.10 | 0.10 | 69 | 1013.6 |
| 20260906182321 | 69 | 163 | 0.0 | 2.0 | 0.00 | 0.10 | 0.10 | 70 | 1013.7 |
| 20260906181822 | 69 | 155 | 1.0 | 5.0 | 0.00 | 0.10 | 0.10 | 69 | 1013.7 |
| 20260906181321 | 69 | 159 | 2.0 | 7.0 | 0.00 | 0.10 | 0.10 | 69 | 1013.7 |
| 20260906180821 | 69 | 144 | 2.0 | 3.0 | 0.00 | 0.10 | 0.10 | 69 | 1013.7 |
| 20260906175822 | 69 | 169 | 3.0 | 6.0 | 0.00 | 0.10 | 0.10 | 69 | 1013.8 |
| 20260906175321 | 69 | 147 | 2.0 | 6.0 | 0.00 | 0.10 | 0.10 | 68 | 1013.8 |
| 20260906174821 | 69 | 122 | 3.0 | 7.0 | 0.00 | 0.10 | 0.10 | 68 | 1013.8 |
| 20260906174321 | 69 | 168 | 2.0 | 7.0 | 0.00 | 0.10 | 0.10 | 68 | 1013.8 |
| 20260906173822 | 69 | 137 | 4.0 | 9.0 | 0.00 | 0.10 | 0.10 | 67 | 1013.7 |
| 20260906173321 | 69 | 144 | 5.0 | 9.0 | 0.00 | 0.10 | 0.10 | 68 | 1013.7 |
| 20260906172321 | 69 | 172 | 3.0 | 7.0 | 0.00 | 0.10 | 0.10 | 68 | 1013.7 |
| 20260906171821 | 69 | 162 | 2.0 | 5.0 | 0.00 | 0.10 | 0.10 | 69 | 1013.7 |
| 20260906170821 | 68 | 160 | 3.0 | 7.0 | 0.00 | 0.10 | 0.10 | 69 | 1013.8 |
| 20260906170321 | 68 | 171 | 3.0 | 7.0 | 0.00 | 0.10 | 0.10 | 69 | 1013.8 |
| 20260906165821 | 68 | 171 | 3.0 | 9.0 | 0.00 | 0.10 | 0.10 | 69 | 1013.9 |
| 20260906165321 | 68 | 161 | 2.0 | 5.0 | 0.00 | 0.10 | 0.10 | 68 | 1014.0 |
| 20260906164321 | 68 | 174 | 2.0 | 5.0 | 0.00 | 0.10 | 0.10 | 68 | 1014.1 |
| 20260906163822 | 68 | 158 | 3.0 | 8.0 | 0.00 | 0.10 | 0.10 | 68 | 1014.0 |
| 20260906163320 | 68 | 160 | 4.0 | 10.0 | 0.00 | 0.10 | 0.10 | 68 | 1014.1 |
| 20260906162320 | 68 | 155 | 5.0 | 8.0 | 0.00 | 0.10 | 0.10 | 67 | 1014.4 |
| 20260906161821 | 68 | 176 | 4.0 | 10.0 | 0.00 | 0.10 | 0.10 | 67 | 1014.4 |
| 20260906161321 | 68 | 149 | 5.0 | 8.0 | 0.00 | 0.10 | 0.10 | 66 | 1014.4 |
| 20260906160321 | 68 | 162 | 3.0 | 7.0 | 0.00 | 0.10 | 0.10 | 66 | 1014.6 |
| 20260906155321 | 68 | 168 | 2.0 | 5.0 | 0.00 | 0.10 | 0.10 | 66 | 1014.7 |
| 20260906154822 | 68 | 173 | 3.0 | 8.0 | 0.00 | 0.10 | 0.10 | 66 | 1014.8 |
| 20260906154321 | 68 | 172 | 4.0 | 8.0 | 0.00 | 0.10 | 0.10 | 65 | 1014.7 |
| 20260906153320 | 68 | 153 | 5.0 | 9.0 | 0.00 | 0.10 | 0.10 | 66 | 1014.9 |
| 20260906152821 | 68 | 165 | 3.0 | 8.0 | 0.00 | 0.10 | 0.10 | 66 | 1015.1 |
| 20260906151821 | 69 | 158 | 3.0 | 5.0 | 0.00 | 0.10 | 0.10 | 65 | 1015.2 |
| 20260906151320 | 69 | 171 | 4.0 | 7.0 | 0.00 | 0.10 | 0.10 | 65 | 1015.3 |
| 20260906145822 | 69 | 172 | 5.0 | 9.0 | 0.00 | 0.10 | 0.10 | 63 | 1015.5 |
| 20260906145320 | 69 | 158 | 4.0 | 9.0 | 0.00 | 0.10 | 0.10 | 63 | 1015.6 |
| 20260906144322 | 69 | 195 | 4.0 | 9.0 | 0.00 | 0.10 | 0.10 | 61 | 1015.7 |
| 20260906143821 | 70 | 226 | 5.0 | 10.0 | 0.00 | 0.10 | 0.10 | 62 | 1015.8 |
| 20260906143320 | 70 | 184 | 6.0 | 10.0 | 0.00 | 0.10 | 0.10 | 63 | 1015.9 |
| 20260906141821 | 69 | 165 | 3.0 | 10.0 | 0.00 | 0.10 | 0.10 | 66 | 1016.0 |
| 20260906141321 | 69 | 168 | 5.0 | 10.0 | 0.00 | 0.10 | 0.10 | 66 | 1016.0 |
| 20260906140820 | 68 | 179 | 3.0 | 8.0 | 0.00 | 0.10 | 0.10 | 73 | 1016.1 |
| 20260906134822 | 67 | 112 | 3.0 | 9.0 | 0.00 | 0.10 | 0.10 | 76 | 1016.1 |
| 20260906133820 | 67 | 98 | 3.0 | 5.0 | 0.00 | 0.10 | 0.10 | 76 | 1016.3 |
| 20260906133321 | 68 | 107 | 4.0 | 8.0 | 0.00 | 0.10 | 0.10 | 76 | 1016.3 |
| 20260906132821 | 68 | 109 | 6.0 | 9.0 | 0.00 | 0.10 | 0.10 | 75 | 1016.3 |
| 20260906132321 | 67 | 102 | 4.0 | 8.0 | 0.00 | 0.10 | 0.10 | 77 | 1016.3 |
| 20260906131821 | 67 | 83 | 4.0 | 7.0 | 0.00 | 0.10 | 0.10 | 79 | 1016.5 |
| 20260906131321 | 66 | 97 | 3.0 | 9.0 | 0.00 | 0.10 | 0.10 | 78 | 1016.5 |
| 20260906130321 | 65 | 100 | 1.0 | 9.0 | 0.00 | 0.10 | 0.10 | 82 | 1016.8 |
| 20260906125820 | 64 | 80 | 2.0 | 6.0 | 0.00 | 0.10 | 0.10 | 83 | 1016.8 |
| 20260906125321 | 63 | 96 | 3.0 | 7.0 | 0.00 | 0.10 | 0.10 | 84 | 1016.8 |
| 20260906124822 | 63 | 93 | 2.0 | 6.0 | 0.00 | 0.10 | 0.10 | 85 | 1016.8 |
| 20260906124321 | 63 | 96 | 5.0 | 12.0 | 0.00 | 0.10 | 0.10 | 83 | 1016.9 |
| 20260906123822 | 63 | 137 | 3.0 | 8.0 | 0.00 | 0.10 | 0.10 | 83 | 1017.1 |
| 20260906123320 | 62 | 103 | 2.0 | 8.0 | 0.00 | 0.10 | 0.10 | 82 | 1017.1 |
| 20260906122820 | 62 | 97 | 4.0 | 8.0 | 0.00 | 0.10 | 0.10 | 82 | 1017.1 |
| 20260906121821 | 62 | 85 | 3.0 | 10.0 | 0.00 | 0.10 | 0.10 | 85 | 1017.2 |
| 20260906121322 | 61 | 74 | 4.0 | 7.0 | 0.00 | 0.10 | 0.10 | 86 | 1017.1 |
| 20260906120822 | 60 | 99 | 2.0 | 5.0 | 0.00 | 0.10 | 0.10 | 86 | 1017.1 |
| 20260906120321 | 60 | 77 | 2.0 | 6.0 | 0.00 | 0.10 | 0.10 | 88 | 1017.2 |
| 20260906115821 | 59 | 96 | 3.0 | 5.0 | 0.00 | 0.10 | 0.10 | 88 | 1017.3 |
| 20260906115321 | 59 | 85 | 3.0 | 7.0 | 0.01 | 0.10 | 0.10 | 90 | 1017.6 |
| 20260906114821 | 59 | 98 | 1.0 | 7.0 | 0.02 | 0.10 | 0.10 | 90 | 1017.8 |
| 20260906114320 | 59 | 90 | 3.0 | 7.0 | 0.04 | 0.10 | 0.10 | 89 | 1017.8 |
| 20260906113821 | 58 | 103 | 1.0 | 3.0 | 0.04 | 0.10 | 0.10 | 89 | 1017.8 |
| 20260906113322 | 58 | 90 | 2.0 | 5.0 | 0.04 | 0.10 | 0.10 | 90 | 1018.0 |
| 20260906112821 | 58 | 92 | 1.0 | 5.0 | 0.04 | 0.10 | 0.10 | 91 | 1018.1 |
| 20260906111821 | 58 | 82 | 1.0 | 5.0 | 0.05 | 0.10 | 0.10 | 91 | 1018.3 |
| 20260906110821 | 57 | 349 | 1.0 | 5.0 | 0.06 | 0.10 | 0.10 | 88 | 1018.4 |
| 20260906110321 | 57 | 86 | 1.0 | 5.0 | 0.06 | 0.10 | 0.10 | 88 | 1018.4 |
| 20260906105821 | 57 | 103 | 2.0 | 5.0 | 0.06 | 0.10 | 0.10 | 88 | 1018.5 |
| 20260906105321 | 57 | 199 | 3.0 | 7.0 | 0.05 | 0.09 | 0.09 | 88 | 1018.5 |
| 20260906104820 | 57 | 144 | 3.0 | 6.0 | 0.03 | 0.08 | 0.08 | 87 | 1018.7 |
| 20260906104320 | 57 | 167 | 2.0 | 9.0 | 0.02 | 0.06 | 0.06 | 87 | 1018.7 |
| 20260906103320 | 57 | 210 | 1.0 | 7.0 | 0.03 | 0.06 | 0.06 | 87 | 1018.8 |
| 20260906102821 | 57 | 195 | 3.0 | 7.0 | 0.03 | 0.06 | 0.06 | 86 | 1018.9 |
| 20260906102321 | 57 | 203 | 3.0 | 7.0 | 0.03 | 0.06 | 0.06 | 86 | 1018.9 |
| 20260906101321 | 57 | 224 | 5.0 | 8.0 | 0.02 | 0.05 | 0.05 | 84 | 1018.9 |
| 20260906100821 | 57 | 157 | 3.0 | 8.0 | 0.03 | 0.05 | 0.05 | 83 | 1018.9 |
| 20260906100321 | 57 | 228 | 3.0 | 9.0 | 0.03 | 0.05 | 0.05 | 83 | 1018.9 |
| 20260906095820 | 57 | 139 | 2.0 | 6.0 | 0.03 | 0.05 | 0.05 | 83 | 1018.9 |
| 20260906095320 | 57 | 130 | 2.0 | 5.0 | 0.04 | 0.05 | 0.05 | 83 | 1018.9 |
| 20260906094820 | 57 | 128 | 5.0 | 8.0 | 0.04 | 0.05 | 0.05 | 84 | 1019.0 |
| 20260906094320 | 58 | 187 | 3.0 | 9.0 | 0.05 | 0.05 | 0.05 | 85 | 1019.1 |
| 20260906093820 | 58 | 139 | 4.0 | 7.0 | 0.04 | 0.04 | 0.04 | 85 | 1019.2 |
| 20260906093320 | 58 | 195 | 6.0 | 12.0 | 0.03 | 0.03 | 0.03 | 84 | 1019.2 |
| 20260906092821 | 58 | 195 | 3.0 | 7.0 | 0.03 | 0.03 | 0.03 | 85 | 1019.3 |
| 20260906091822 | 58 | 238 | 5.0 | 9.0 | 0.02 | 0.02 | 0.02 | 84 | 1019.4 |
| 20260906091321 | 58 | 216 | 4.0 | 7.0 | 0.02 | 0.02 | 0.02 | 84 | 1019.4 |
| 20260906090820 | 58 | 252 | 3.0 | 5.0 | 0.02 | 0.02 | 0.02 | 84 | 1019.4 |
| 20260906085821 | 59 | 235 | 2.0 | 5.0 | 0.02 | 0.02 | 0.02 | 80 | 1019.3 |
| 20260906085320 | 59 | 195 | 2.0 | 5.0 | 0.01 | 0.01 | 0.01 | 80 | 1019.2 |
| 20260906084820 | 59 | 209 | 2.0 | 6.0 | 0.01 | 0.01 | 0.01 | 79 | 1019.1 |
| 20260906084320 | 59 | 245 | 3.0 | 7.0 | 0.00 | 0.00 | 0.00 | 80 | 1019.1 |
| 20260906083821 | 59 | 150 | 1.0 | 6.0 | 0.00 | 0.00 | 0.00 | 79 | 1019.1 |
| 20260906083321 | 59 | 218 | 1.0 | 2.0 | 0.00 | 0.00 | 0.00 | 78 | 1019.0 |
| 20260906082821 | 59 | 214 | 3.0 | 7.0 | 0.00 | 0.00 | 0.00 | 77 | 1019.1 |
| 20260906082320 | 59 | 123 | 0.0 | 2.0 | 0.00 | 0.00 | 0.00 | 79 | 1019.1 |
| 20260906081821 | 59 | 123 | 1.0 | 2.0 | 0.00 | 0.00 | 0.00 | 78 | 1019.1 |
| 20260906081320 | 59 | 123 | 0.0 | 2.0 | 0.00 | 0.00 | 0.00 | 79 | 1019.0 |
| 20260906080320 | 59 | 123 | 0.0 | 1.0 | 0.00 | 0.00 | 0.00 | 79 | 1019.1 |
| 20260906075820 | 59 | 123 | 0.0 | 1.0 | 0.00 | 0.00 | 0.00 | 80 | 1019.0 |
| 20260906075320 | 58 | 123 | 0.0 | 2.0 | 0.00 | 0.00 | 0.00 | 79 | 1019.1 |
| 20260906074321 | 58 | 123 | 0.0 | 0.0 | 0.00 | 0.00 | 0.00 | 80 | 1019.0 |
| 20260906073320 | 57 | 123 | 0.0 | 2.0 | 0.00 | 0.00 | 0.00 | 81 | 1019.1 |
| 20260906072820 | 57 | 123 | 0.0 | 2.0 | 0.00 | 0.00 | 0.00 | 81 | 1019.1 |
| 20260906072320 | 57 | 123 | 1.0 | 2.0 | 0.00 | 0.00 | 0.00 | 79 | 1019.1 |
| 20260906071821 | 58 | 120 | 1.0 | 3.0 | 0.00 | 0.00 | 0.00 | 79 | 1019.1 |
| 20260906071321 | 58 | 165 | 1.0 | 3.0 | 0.00 | 0.00 | 0.00 | 79 | 1019.2 |
| 20260906070820 | 57 | 300 | 1.0 | 3.0 | 0.00 | 0.00 | 0.00 | 80 | 1019.3 |
| 20260906070321 | 57 | 304 | 1.0 | 2.0 | 0.00 | 0.00 | 0.00 | 81 | 1019.4 |
| 20260906065820 | 56 | 304 | 0.0 | 2.0 | 0.00 | 0.00 | 0.00 | 81 | 1019.4 |
| 20260906064820 | 55 | 304 | 0.0 | 2.0 | 0.00 | 0.00 | 0.00 | 83 | 1019.4 |
| 20260906064320 | 55 | 304 | 0.0 | 2.0 | 0.00 | 0.00 | 0.00 | 85 | 1019.5 |
| 20260906063321 | 55 | 304 | 0.0 | 2.0 | 0.00 | 0.00 | 0.00 | 86 | 1019.5 |
| 20260906062322 | 54 | 304 | 1.0 | 2.0 | 0.00 | 0.00 | 0.00 | 87 | 1019.6 |
| 20260906061320 | 54 | 304 | 0.0 | 0.0 | 0.00 | 0.00 | 0.00 | 87 | 1019.8 |
| 20260906060821 | 54 | 304 | 1.0 | 3.0 | 0.00 | 0.00 | 0.00 | 87 | 1019.9 |
| 20260906060321 | 54 | 204 | 1.0 | 2.0 | 0.00 | 0.00 | 0.00 | 87 | 1020.0 |
| 20260906055820 | 54 | 204 | 0.0 | 1.0 | 0.00 | 0.00 | 0.00 | 87 | 1020.1 |
| 20260906055320 | 54 | 204 | 1.0 | 2.0 | 0.00 | 0.00 | 0.00 | 86 | 1020.2 |
| 20260906054821 | 54 | 204 | 0.0 | 1.0 | 0.00 | 0.00 | 0.00 | 86 | 1020.0 |
| 20260906054321 | 54 | 204 | 0.0 | 2.0 | 0.00 | 0.00 | 0.00 | 86 | 1020.0 |
| 20260906053820 | 54 | 204 | 1.0 | 2.0 | 0.00 | 0.00 | 0.00 | 86 | 1019.9 |
| 20260906053320 | 53 | 244 | 1.0 | 3.0 | 0.00 | 0.00 | 0.00 | 87 | 1019.9 |
| 20260906052820 | 53 | 123 | 1.0 | 2.0 | 0.00 | 0.00 | 0.00 | 88 | 1019.9 |
| 20260906052320 | 52 | 123 | 1.0 | 2.0 | 0.00 | 0.00 | 0.00 | 89 | 1019.9 |
| 20260906051820 | 52 | 123 | 1.0 | 3.0 | 0.00 | 0.00 | 0.00 | 89 | 1020.0 |
| 20260906051320 | 52 | 340 | 1.0 | 2.0 | 0.00 | 0.00 | 0.00 | 89 | 1020.0 |
| 20260906050820 | 52 | 340 | 2.0 | 2.0 | 0.00 | 0.00 | 0.00 | 90 | 1020.0 |
| 20260906050320 | 52 | 340 | 1.0 | 2.0 | 0.00 | 0.00 | 0.00 | 89 | 1020.1 |
| 20260906045821 | 52 | 340 | 1.0 | 2.0 | 0.00 | 0.00 | 0.00 | 89 | 1020.1 |
| 20260906045320 | 52 | 340 | 1.0 | 2.0 | 0.00 | 0.00 | 0.00 | 90 | 1020.2 |
| 20260906044320 | 51 | 340 | 1.0 | 2.0 | 0.00 | 0.00 | 0.00 | 90 | 1020.3 |
| 20260906043820 | 51 | 340 | 1.0 | 2.0 | 0.00 | 0.00 | 0.00 | 90 | 1020.3 |
| 20260906043320 | 51 | 340 | 1.0 | 2.0 | 0.00 | 0.00 | 0.00 | 90 | 1020.4 |
| 20260906041821 | 51 | 83 | 1.0 | 2.0 | 0.00 | 0.00 | 0.00 | 90 | 1020.5 |
| 20260906041320 | 52 | 83 | 0.0 | 1.0 | 0.00 | 0.00 | 0.00 | 90 | 1020.5 |
| 20260906040820 | 52 | 83 | 0.0 | 2.0 | 0.00 | 0.00 | 0.00 | 90 | 1020.6 |
| 20260906040320 | 52 | 83 | 0.0 | 1.0 | 0.00 | 0.00 | 0.00 | 90 | 1020.7 |
| 20260906035821 | 52 | 83 | 1.0 | 2.0 | 0.00 | 0.00 | 0.00 | 90 | 1020.7 |
| 20260906033822 | 52 | 83 | 0.0 | 1.0 | 0.00 | 0.00 | 0.00 | 90 | 1020.8 |
| 20260906033320 | 52 | 83 | 1.0 | 3.0 | 0.00 | 0.00 | 0.00 | 90 | 1020.9 |
| 20260906032821 | 52 | 82 | 2.0 | 3.0 | 0.00 | 0.00 | 0.00 | 90 | 1021.0 |
| 20260906031821 | 52 | 51 | 0.0 | 1.0 | 0.00 | 0.00 | 0.00 | 90 | 1021.2 |
| 20260906031321 | 52 | 51 | 1.0 | 2.0 | 0.00 | 0.00 | 0.00 | 90 | 1021.3 |
| 20260906030820 | 52 | 51 | 1.0 | 2.0 | 0.00 | 0.00 | 0.00 | 90 | 1021.3 |
| 20260906030320 | 52 | 39 | 2.0 | 3.0 | 0.00 | 0.00 | 0.00 | 90 | 1021.4 |
| 20260906025820 | 52 | 34 | 2.0 | 3.0 | 0.00 | 0.00 | 0.00 | 90 | 1021.5 |
| 20260906025320 | 52 | 15 | 1.0 | 3.0 | 0.00 | 0.00 | 0.00 | 91 | 1021.5 |
| 20260906024820 | 51 | 15 | 1.0 | 2.0 | 0.00 | 0.00 | 0.00 | 90 | 1021.6 |
| 20260906024320 | 51 | 15 | 0.0 | 2.0 | 0.00 | 0.00 | 0.00 | 89 | 1021.7 |
| 20260906023821 | 52 | 15 | 0.0 | 1.0 | 0.00 | 0.00 | 0.00 | 90 | 1021.8 |
| 20260906023320 | 52 | 15 | 0.0 | 2.0 | 0.00 | 0.00 | 0.00 | 90 | 1021.8 |
| 20260906022820 | 51 | 15 | 1.0 | 3.0 | 0.00 | 0.00 | 0.00 | 90 | 1021.9 |
| 20260906022321 | 51 | 252 | 2.0 | 2.0 | 0.00 | 0.00 | 0.00 | 90 | 1021.9 |
| 20260906021821 | 51 | 252 | 0.0 | 2.0 | 0.00 | 0.00 | 0.00 | 90 | 1021.9 |
| 20260906021320 | 51 | 252 | 1.0 | 1.0 | 0.00 | 0.00 | 0.00 | 90 | 1021.9 |
| 20260906020820 | 51 | 252 | 1.0 | 2.0 | 0.00 | 0.00 | 0.00 | 90 | 1021.9 |
| 20260906020320 | 51 | 252 | 1.0 | 2.0 | 0.00 | 0.00 | 0.00 | 90 | 1021.9 |
| 20260906015821 | 51 | 252 | 1.0 | 2.0 | 0.00 | 0.00 | 0.00 | 90 | 1021.9 |
| 20260906015320 | 51 | 252 | 0.0 | 1.0 | 0.00 | 0.00 | 0.00 | 90 | 1022.0 |
| 20260906014820 | 51 | 252 | 2.0 | 2.0 | 0.00 | 0.00 | 0.00 | 90 | 1022.1 |
| 20260906014320 | 51 | 252 | 1.0 | 2.0 | 0.00 | 0.00 | 0.00 | 90 | 1022.2 |
| 20260906013820 | 51 | 252 | 1.0 | 1.0 | 0.00 | 0.00 | 0.00 | 90 | 1022.3 |
| 20260906013320 | 51 | 252 | 0.0 | 0.0 | 0.00 | 0.00 | 0.00 | 90 | 1022.3 |
| 20260906012820 | 51 | 252 | 0.0 | 0.0 | 0.00 | 0.00 | 0.00 | 90 | 1022.4 |
| 20260906012320 | 51 | 252 | 0.0 | 0.0 | 0.00 | 0.00 | 0.00 | 90 | 1022.5 |
| 20260906011820 | 51 | 252 | 0.0 | 0.0 | 0.00 | 0.00 | 0.00 | 90 | 1022.5 |
| 20260906011320 | 51 | 252 | 0.0 | 0.0 | 0.00 | 0.00 | 0.00 | 89 | 1022.6 |
| 20260906010820 | 51 | 252 | 0.0 | 0.0 | 0.00 | 0.00 | 0.00 | 89 | 1022.6 |
| 20260906004820 | 51 | 252 | 1.0 | 1.0 | 0.00 | 0.00 | 0.00 | 89 | 1022.6 |
| 20260906004320 | 51 | 252 | 0.0 | 1.0 | 0.00 | 0.00 | 0.00 | 89 | 1022.7 |
| 20260906003821 | 51 | 252 | 1.0 | 2.0 | 0.00 | 0.00 | 0.00 | 89 | 1022.7 |
| 20260906002820 | 51 | 252 | 1.0 | 1.0 | 0.00 | 0.00 | 0.00 | 89 | 1022.8 |
| 20260906002319 | 51 | 252 | 1.0 | 2.0 | 0.00 | 0.00 | 0.00 | 89 | 1022.9 |
| 20260906000820 | 51 | 252 | 1.0 | 2.0 | 0.00 | 0.00 | 0.00 | 89 | 1023.0 |
| 20260906000320 | 51 | 252 | 2.0 | 2.0 | 0.00 | 0.00 | 0.00 | 88 | 1023.1 |
| 20260905235820 | 51 | 252 | 2.0 | 2.0 | 0.00 | 0.00 | 0.00 | 88 | 1023.1 |
| 20260905234820 | 51 | 252 | 1.0 | 2.0 | 0.00 | 0.00 | 0.00 | 88 | 1023.3 |
| 20260905234320 | 52 | 252 | 1.0 | 1.0 | 0.00 | 0.00 | 0.00 | 88 | 1023.3 |
| 20260905233820 | 52 | 252 | 1.0 | 1.0 | 0.00 | 0.00 | 0.00 | 87 | 1023.3 |
| 20260905232821 | 52 | 252 | 0.0 | 0.0 | 0.00 | 0.00 | 0.00 | 87 | 1023.5 |
| 20260905232319 | 52 | 252 | 0.0 | 1.0 | 0.00 | 0.00 | 0.00 | 87 | 1023.5 |
| 20260905231820 | 52 | 252 | 1.0 | 1.0 | 0.00 | 0.00 | 0.00 | 87 | 1023.5 |
| 20260905230903 | 52 | 252 | 1.0 | 1.0 | 0.00 | 0.00 | 0.00 | 87 | 1023.4 |
| 20260905230320 | 52 | 252 | 1.0 | 2.0 | 0.00 | 0.00 | 0.00 | 87 | 1023.4 |
| 20260905225820 | 52 | 252 | 1.0 | 2.0 | 0.00 | 0.00 | 0.00 | 86 | 1023.4 |
| 20260905225320 | 53 | 252 | 1.0 | 1.0 | 0.00 | 0.00 | 0.00 | 86 | 1023.3 |
| 20260905224822 | 53 | 252 | 1.0 | 1.0 | 0.00 | 0.00 | 0.00 | 86 | 1023.3 |
| 20260905224320 | 53 | 252 | 1.0 | 1.0 | 0.00 | 0.00 | 0.00 | 86 | 1023.3 |
| 20260905223820 | 53 | 252 | 1.0 | 1.0 | 0.00 | 0.00 | 0.00 | 86 | 1023.3 |
| 20260905223320 | 54 | 252 | 1.0 | 1.0 | 0.00 | 0.00 | 0.00 | 86 | 1023.2 |
| 20260905222820 | 54 | 252 | 1.0 | 1.0 | 0.00 | 0.00 | 0.00 | 86 | 1023.2 |
| 20260905222320 | 54 | 252 | 1.0 | 2.0 | 0.00 | 0.00 | 0.00 | 86 | 1023.3 |
| 20260905221821 | 54 | 252 | 1.0 | 1.0 | 0.00 | 0.00 | 0.00 | 86 | 1023.3 |
| 20260905221320 | 54 | 252 | 1.0 | 2.0 | 0.00 | 0.00 | 0.00 | 85 | 1023.3 |
| 20260905220820 | 54 | 252 | 0.0 | 2.0 | 0.00 | 0.00 | 0.00 | 86 | 1023.3 |
| 20260905220320 | 54 | 252 | 0.0 | 2.0 | 0.00 | 0.00 | 0.00 | 86 | 1023.3 |
| 20260905215821 | 54 | 252 | 0.0 | 2.0 | 0.00 | 0.00 | 0.00 | 85 | 1023.3 |
| 20260905215320 | 54 | 252 | 0.0 | 1.0 | 0.00 | 0.00 | 0.00 | 85 | 1023.3 |
| 20260905214821 | 54 | 252 | 1.0 | 1.0 | 0.00 | 0.00 | 0.00 | 85 | 1023.3 |
| 20260905214320 | 54 | 252 | 1.0 | 1.0 | 0.00 | 0.00 | 0.00 | 85 | 1023.4 |
| 20260905213819 | 54 | 252 | 1.0 | 1.0 | 0.00 | 0.00 | 0.00 | 84 | 1023.4 |
| 20260905213320 | 54 | 252 | 0.0 | 2.0 | 0.00 | 0.00 | 0.00 | 84 | 1023.5 |
| 20260905212821 | 55 | 252 | 0.0 | 1.0 | 0.00 | 0.00 | 0.00 | 84 | 1023.5 |
| 20260905212320 | 55 | 252 | 1.0 | 2.0 | 0.00 | 0.00 | 0.00 | 83 | 1023.5 |
| 20260905211822 | 55 | 252 | 0.0 | 2.0 | 0.00 | 0.00 | 0.00 | 83 | 1023.4 |
| 20260905210820 | 55 | 252 | 0.0 | 2.0 | 0.00 | 0.00 | 0.00 | 83 | 1023.6 |
| 20260905210320 | 55 | 252 | 0.0 | 1.0 | 0.00 | 0.00 | 0.00 | 82 | 1023.6 |
| 20260905205820 | 56 | 252 | 0.0 | 2.0 | 0.00 | 0.00 | 0.00 | 82 | 1023.6 |
| 20260905204820 | 56 | 252 | 1.0 | 2.0 | 0.00 | 0.00 | 0.00 | 82 | 1023.6 |
| 20260905204320 | 56 | 252 | 1.0 | 2.0 | 0.00 | 0.00 | 0.00 | 81 | 1023.6 |
| 20260905203320 | 56 | 252 | 0.0 | 2.0 | 0.00 | 0.00 | 0.00 | 81 | 1023.5 |
| 20260905202820 | 56 | 252 | 0.0 | 2.0 | 0.00 | 0.00 | 0.00 | 81 | 1023.4 |
| 20260905202320 | 56 | 252 | 1.0 | 2.0 | 0.00 | 0.00 | 0.00 | 81 | 1023.4 |
| 20260905201320 | 56 | 252 | 0.0 | 2.0 | 0.00 | 0.00 | 0.00 | 81 | 1023.4 |
| 20260905200820 | 56 | 252 | 0.0 | 1.0 | 0.00 | 0.00 | 0.00 | 81 | 1023.4 |
| 20260905200319 | 56 | 252 | 0.0 | 0.0 | 0.00 | 0.00 | 0.00 | 81 | 1023.3 |
| 20260905195820 | 56 | 252 | 0.0 | 0.0 | 0.00 | 0.00 | 0.00 | 81 | 1023.3 |
| 20260905195320 | 56 | 252 | 0.0 | 2.0 | 0.00 | 0.00 | 0.00 | 81 | 1023.3 |
| 20260905194820 | 56 | 252 | 0.0 | 1.0 | 0.00 | 0.00 | 0.00 | 80 | 1023.3 |
| 20260905193820 | 56 | 252 | 0.0 | 0.0 | 0.00 | 0.00 | 0.00 | 78 | 1023.3 |
| 20260905193320 | 57 | 252 | 0.0 | 2.0 | 0.00 | 0.00 | 0.00 | 78 | 1023.2 |
| 20260905191820 | 58 | 252 | 1.0 | 1.0 | 0.00 | 0.00 | 0.00 | 77 | 1022.9 |
| 20260905190320 | 58 | 252 | 0.0 | 2.0 | 0.00 | 0.00 | 0.00 | 76 | 1022.7 |